Regional Weather Roundup
Issued by NWS Albany, NY

Home | Current Version | Previous Version | Graphics & Text | Print | Product List | Glossary On
Versions: 1 2 3 4 5 6 7 8 9 10 11 12 13 14 15 16 17 18 19 20 21 22 23 24 25 26 27 28 29 30 31 32 33 34 35 36 37 38 39 40 41 42 43 44 45 46 47 48 49 50
000
ASUS41 KALY 022210
RWRALY

NEW YORK STATE HOURLY WEATHER ROUNDUP
NATIONAL WEATHER SERVICE ALBANY NY
600 PM EDT THU JUL 02 2015

NOTE: "FAIR" INDICATES FEW OR NO CLOUDS BELOW 12,000 FEET WITH NO
SIGNIFICANT WEATHER AND/OR NO OBSTRUCTIONS TO VISIBILITY.

NYZ032-033-038>043-046>054-057>066-NYZ062>081-022300-
EAST


CITY           SKY/WX    TMP DP  RH WIND       PRES   REMARKS
ALBANY         PTSUNNY   75  50  41 NW9       29.89S
GLENS FALLS    SUNNY     76  46  34 W6        29.87S
POUGHKEEPSIE   PTSUNNY   77  57  50 CALM      29.85F
NEWBURGH       MOSUNNY   75  61  60 SW6       29.88F
MONTGOMERY     PTSUNNY   77  58  51 CALM      29.86F
WHITE PLAINS   PTSUNNY   76  57  51 CALM      29.87S
ISLIP          CLOUDY    72  61  68 S6        29.86F
NEW YORK CITY  CLOUDY    76  58  53 S7        29.86S
CENTRAL PARK   PTSUNNY   76  59  55 S3        29.89S
$$

NYZ005>009-017-018-044>046-055-056-022300-
CENTRAL


CITY           SKY/WX    TMP DP  RH WIND       PRES   REMARKS
FULTON         SUNNY     68  45  43 W6        29.94F
SYRACUSE       MOSUNNY   71  47  42 NW9       29.93F
ROME           SUNNY     70  45  40 NW10      29.94S
ELMIRA         MOSUNNY   71  57  61 N8        29.91F
BINGHAMTON     MOSUNNY   69  52  54 N9        29.94S
MONTICELLO     PTSUNNY   72  55  56 NW8       29.92F
$$

NYZ026>034-041>043-022300-
NORTH


CITY           SKY/WX    TMP DP  RH WIND       PRES   REMARKS
WATERTOWN      SUNNY     66  50  56 W12       29.94F
FORT DRUM      NOT AVBL
MASSENA        SUNNY     70  46  42 W9        29.91S
SARANAC LAKE   SUNNY     66  42  41 W8        29.92S
PLATTSBURGH    MOSUNNY   73  44  35 NW7       29.88S
$$

NYZ001>004-010>016-019>021-022300-
WEST


CITY           SKY/WX    TMP DP  RH WIND       PRES   REMARKS
NIAGARA FALLS  SUNNY     70  46  42 N7        29.96S
BUFFALO        MOSUNNY   70  45  40 NE5       29.96S
DUNKIRK        SUNNY     68  51  54 NW7       29.97S
JAMESTOWN      SUNNY     66  50  55 NW12      29.99R
WELLSVILLE     SUNNY     69  53  56 N8        29.98S
ROCHESTER      MOSUNNY   71  43  36 NW10      29.96S
PENN YAN       PTSUNNY   68  52  56 VRB6      29.95F
$$

             KEY
       WCI = WIND CHILL INDEX
       VSB = VISIBILITY
       HX  = HEAT INDEX
$$



USA.gov is the U.S. government's official web portal to all federal, state and local government web resources and services.